[[{"header":{"parameterUnit":"m.s-1","parameterCategory":2,"la1":30.2991,"la2":30.254,"lo1":-89.0895,"lo2":-89.0444,"dy":0.0017,"dx":0.0017,"nx":28,"ny":28,"refTime":"2024-08-14T03:00:00:Z","depth":"0","parameterNumber":2,"parameterNumberName":"U-component_of_CURRENTS"},"data":[0,0,0,0,0,0,0,0,0,0,0,0,0,0,0,0,0,0,0,0,0,0,0,0,0,0,0,0,0,0,0,0,0,0,0,0,0,0,0,0,0,0,0,0,0,0,0,0,0,0,0,0,0,0,0,0,0,0,0.4459,0.4458,0,0.4418,0.4417,0.4417,0.4434,0.4435,0.4436,0.4437,0.4481,0.4481,0.4481,0,0,0,0,0,0,0,0,0,0,0,0,0,0.4446,0.4446,0.4459,0.4458,0.4458,0.4418,0.4417,0.4417,0.4434,0.4435,0.4436,0.4437,0.4481,0.4481,0.4481,0,0,0,0,0,0,0,0,0,0,0,0,0,0.4432,0.4447,0.4459,0.4462,0.4462,0.4418,0.4417,0.4417,0.4433,0.4435,0.4436,0.4438,0.448,0.4481,0.4481,0.4452,0,0,0.4482,0.4482,0,0,0,0,0,0,0,0,0.4433,0.4433,0.4462,0.4462,0.4461,0.4433,0.4429,0.4433,0.4433,0.4444,0.4437,0.4439,0.4472,0.4473,0.446,0.4454,0.4456,0.4482,0.4482,0.4482,0.4483,0,0,0,0,0,0,0,0.4434,0.4434,0.4442,0.4461,0.4461,0.4429,0.443,0.4429,0.4451,0.4443,0.4444,0.444,0.4472,0.4459,0.4461,0.4457,0.4482,0.4482,0.4483,0.4483,0.4464,0.4464,0,0,0,0,0,0,0.4444,0.4436,0.4443,0.4441,0.4451,0.4428,0.4429,0.444,0.4449,0.4451,0.4439,0.4441,0.4458,0.4461,0.4463,0.4455,0.4482,0.4483,0.4483,0.4465,0.4464,0.4463,0,0,0,0,0,0,0.4444,0.4446,0.4445,0.4437,0.4434,0.4428,0.4439,0.4438,0.4426,0.4445,0.4449,0.4427,0.4459,0.4463,0.447,0.4456,0.4483,0.4483,0.4466,0.4465,0.4464,0.4424,0,0,0,0,0,0,0.4445,0.4447,0.4447,0.4438,0.4435,0.4418,0.4438,0.4437,0.4421,0.4424,0.4436,0.4442,0.4461,0.4469,0.447,0.4457,0.4483,0.4467,0.4465,0.4464,0.4426,0.4421,0.4417,0,0,0,0,0,0.4444,0.4434,0.4448,0.4448,0.4441,0.4417,0.4412,0.4411,0.4419,0.4407,0.4425,0.4442,0.4462,0.4469,0.447,0.4457,0.4467,0.4466,0.4464,0.4428,0.4422,0.4418,0,0,0,0,0,0,0.4382,0.4435,0.445,0.4444,0.4434,0.442,0.4395,0.4403,0.4401,0.4405,0.4432,0.4438,0.4443,0.445,0.4457,0.4448,0.4467,0.4465,0.4439,0.4434,0.443,0.4426,0.4484,0,0,0,0,0,0.4381,0.4418,0.4426,0.4415,0.4408,0.4401,0.4387,0.4393,0.4393,0.4392,0.4407,0.4421,0.4433,0.4435,0.4448,0.4434,0.4449,0.4426,0.4422,0.4419,0.4416,0.4445,0.4444,0.4458,0.4458,0.4458,0,0,0.4348,0.4381,0.4396,0.4409,0.4394,0.4376,0.4396,0.4371,0.4362,0.4398,0.4386,0.441,0.4429,0.4426,0.4426,0.4431,0.4416,0.4417,0.4414,0.4413,0.4443,0.4442,0.4441,0.4457,0.4457,0.4458,0,0,0.4308,0.4329,0.4351,0.435,0.435,0.4341,0.4336,0.433,0.4333,0.4327,0.4358,0.437,0.4378,0.4391,0.4398,0.4372,0.44,0.4378,0.4346,0.4374,0.4373,0.4373,0.4366,0.4365,0.4368,0.4368,0.4368,0,0.4269,0.4292,0.4336,0.4341,0.4318,0.4327,0.4297,0.43,0.4302,0.4295,0.4322,0.4334,0.4358,0.4352,0.4357,0.4362,0.438,0.4364,0.4369,0.4369,0.437,0.4363,0.4363,0.4366,0.4366,0.4366,0.4367,0,0.4254,0.4256,0.4245,0.4276,0.4256,0.4223,0.4232,0.4223,0.4227,0.4234,0.4237,0.4273,0.4282,0.4292,0.4323,0.4329,0.4339,0.4368,0.4383,0.4366,0.436,0.436,0.4363,0.4364,0.4364,0.4365,0,0,0.4202,0.4238,0.423,0.4217,0.4215,0.4186,0.417,0.4145,0.4127,0.4153,0.4132,0.4173,0.4202,0.4214,0.4252,0.428,0.43,0.433,0.4332,0.4324,0.4346,0.4119,0.4099,0.4345,0.4345,0.4345,0.4331,0,0.4163,0.4152,0.4184,0.4125,0.4091,0.4099,0.4079,0.4068,0.4069,0.406,0.41,0.4106,0.417,0.418,0.4221,0.4284,0.4305,0.43,0.4363,0.4363,0.4166,0.4092,0.3867,0.3816,0.4332,0.4333,0.4333,0,0.412,0.4124,0.4066,0.404,0.4026,0.3997,0.3939,0.3939,0.3944,0.3957,0.3976,0.4016,0.4053,0.4121,0.4207,0.4208,0.4277,0.4326,0.4327,0.413,0.4137,0.3921,0.3798,0.3716,0.4334,0.4334,0.4334,0,0.4025,0.402,0.3962,0.3953,0.394,0.3907,0.3898,0.3889,0.3865,0.3894,0.3873,0.394,0.3949,0.4061,0.4151,0.4199,0.4234,0.4306,0.4159,0.4144,0.3966,0.3932,0.3768,0.437,0.437,0.437,0.437,0,0.3943,0.3889,0.3914,0.388,0.3799,0.3835,0.3753,0.3768,0.377,0.3717,0.382,0.3781,0.3944,0.3975,0.4105,0.4083,0.4192,0.4119,0.4112,0.3938,0.3903,0.3836,0.3861,0.437,0.437,0.437,0.437,0,0.3794,0.3825,0.3756,0.3755,0.374,0.3679,0.3641,0.3598,0.364,0.3574,0.3578,0.3644,0.3663,0.3779,0.3916,0.3954,0.3877,0.3991,0.3741,0.37,0.3438,0.347,0.3208,0.3145,0.3806,0.38,0.3795,0,0.3699,0.3655,0.3634,0.3588,0.3571,0.3508,0.3457,0.3502,0.3463,0.3466,0.3419,0.3421,0.3375,0.3437,0.3505,0.3585,0.362,0.3423,0.3455,0.3332,0.3369,0.3322,0.3291,0.3223,0.3214,0.3206,0.32,0,0.3504,0.3506,0.3468,0.3392,0.333,0.3257,0.3209,0.3162,0.3207,0.3165,0.3101,0.3071,0.307,0.2984,0.3042,0.3113,0.32,0.3262,0.3227,0.2933,0.2785,0.275,0.3325,0.3132,0.3139,0.3144,0.3148,0.315,0.3331,0.3268,0.3238,0.3134,0.3093,0.2999,0.2879,0.2866,0.2779,0.2673,0.278,0.2649,0.26,0.2611,0.2661,0.255,0.2703,0.2517,0.2581,0.2556,0.241,0.2776,0.2512,0.2515,0.2517,0.252,0.2522,0,0.3066,0.3042,0.2971,0.2866,0.276,0.2791,0.2687,0.2559,0.2403,0.2374,0.2294,0.2129,0.2011,0.2034,0.1969,0.1918,0.1953,0.1889,0.184,0.1867,0.2259,0.2146,0.1673,0.1673,0.1673,0.1673,0.1673,0.1673,0.2935,0.2789,0.2763,0.2535,0.2474,0.2269,0.2167,0.2034,0.1972,0.1744,0.1607,0.1608,0.1637,0.1549,0.1472,0.1474,0.1497,0.1324,0.1478,0.1823,0.189,0.1955,0.185,0.1323,0.1323,0.0968,0.0966,0.0964]},{"header":{"parameterUnit":"m.s-1","parameterCategory":2,"la1":30.2991,"la2":30.254,"lo1":-89.0895,"lo2":-89.0444,"dy":0.0017,"dx":0.0017,"nx":28,"ny":28,"refTime":"2024-08-14T03:00:00:Z","depth":"0","parameterNumber":3,"parameterNumberName":"V-component_of_CURRENTS"},"data":[0,0,0,0,0,0,0,0,0,0,0,0,0,0,0,0,0,0,0,0,0,0,0,0,0,0,0,0,0,0,0,0,0,0,0,0,0,0,0,0,0,0,0,0,0,0,0,0,0,0,0,0,0,0,0,0,0,0,-0.0725,-0.0725,0,-0.0628,-0.0626,-0.0625,-0.0562,-0.0562,-0.0563,-0.0563,-0.0408,-0.0404,-0.04,0,0,0,0,0,0,0,0,0,0,0,0,0,-0.0738,-0.0739,-0.0725,-0.0725,-0.0724,-0.0628,-0.0626,-0.0624,-0.0562,-0.0562,-0.0563,-0.0563,-0.041,-0.0405,-0.04,0,0,0,0,0,0,0,0,0,0,0,0,0,-0.0692,-0.0739,-0.0726,-0.0685,-0.068,-0.0628,-0.0626,-0.0624,-0.0562,-0.0562,-0.0563,-0.0563,-0.0411,-0.0405,-0.0399,-0.036,0,0,-0.038,-0.0378,0,0,0,0,0,0,0,0,-0.0695,-0.0691,-0.0691,-0.0687,-0.0682,-0.0611,-0.0574,-0.0534,-0.0562,-0.0603,-0.0563,-0.0563,-0.0474,-0.0462,-0.0439,-0.0353,-0.0346,-0.038,-0.0376,-0.0373,-0.0372,0,0,0,0,0,0,0,-0.0698,-0.0694,-0.0682,-0.0691,-0.0685,-0.063,-0.0624,-0.0566,-0.0535,-0.0599,-0.0595,-0.0591,-0.047,-0.0445,-0.0434,-0.0344,-0.038,-0.0374,-0.0371,-0.0368,-0.0132,-0.013,0,0,0,0,0,0,-0.0726,-0.0698,-0.0685,-0.068,-0.0694,-0.0631,-0.0624,-0.063,-0.0536,-0.0524,-0.0592,-0.0589,-0.0455,-0.0442,-0.0429,-0.0315,-0.0373,-0.0368,-0.0364,-0.0135,-0.0132,-0.0129,0,0,0,0,0,0,-0.0726,-0.0726,-0.0689,-0.0689,-0.0681,-0.0632,-0.0639,-0.0629,-0.0605,-0.0532,-0.0518,-0.0579,-0.0455,-0.0437,-0.0359,-0.0311,-0.0365,-0.0359,-0.0138,-0.0134,-0.013,-0.0126,0,0,0,0,0,0,-0.0727,-0.0727,-0.0732,-0.0692,-0.0683,-0.0656,-0.0639,-0.0627,-0.0604,-0.06,-0.0516,-0.0502,-0.0453,-0.0369,-0.0353,-0.0303,-0.0354,-0.0141,-0.0136,-0.0132,-0.013,-0.0123,-0.0117,0,0,0,0,0,-0.0728,-0.0732,-0.0734,-0.0732,-0.0696,-0.0656,-0.0645,-0.0606,-0.0604,-0.0586,-0.0523,-0.0505,-0.0327,-0.0362,-0.0344,-0.0291,-0.0143,-0.0137,-0.0132,-0.0133,-0.0124,-0.0117,0,0,0,0,0,0,-0.0722,-0.0726,-0.0726,-0.0727,-0.0697,-0.0647,-0.0629,-0.0611,-0.0549,-0.0543,-0.0481,-0.046,-0.0371,-0.0332,-0.0373,-0.0206,-0.0228,-0.0219,-0.0235,-0.0226,-0.022,-0.022,-0.0349,0,0,0,0,0,-0.0733,-0.0746,-0.0726,-0.0722,-0.0715,-0.0677,-0.0656,-0.0631,-0.0579,-0.0553,-0.0494,-0.0417,-0.0332,-0.0285,-0.0214,-0.0131,-0.0117,-0.008,-0.0074,-0.0069,-0.0054,0.0006,0.0018,-0.011,-0.011,-0.011,0,0,-0.073,-0.0732,-0.0737,-0.0723,-0.0699,-0.0661,-0.0663,-0.0633,-0.0579,-0.0544,-0.0453,-0.0401,-0.0307,-0.0206,-0.0161,-0.0168,-0.0029,-0.0062,-0.0058,-0.0046,0.0013,0.0025,0.0036,-0.0106,-0.0107,-0.0108,0,0,-0.0711,-0.0734,-0.073,-0.0707,-0.0682,-0.0654,-0.0652,-0.0604,-0.0565,-0.0485,-0.0433,-0.0355,-0.024,-0.0153,-0.0095,-0.0011,-0.0005,0.0012,0.0055,0.0112,0.0122,0.0132,0.0134,0.0143,0.0024,0.0024,0.0024,0,-0.0697,-0.0693,-0.0715,-0.0688,-0.0656,-0.0653,-0.0607,-0.0566,-0.049,-0.0439,-0.0454,-0.0261,-0.0204,-0.0051,-0.0019,0.0004,0.0013,0.0011,0.0117,0.0127,0.0136,0.0137,0.0147,0.0025,0.0025,0.0025,0.0025,0,-0.0666,-0.0653,-0.0645,-0.0616,-0.0586,-0.055,-0.0506,-0.0462,-0.043,-0.0376,-0.0252,-0.0177,-0.0059,-0.0026,0.0005,0.0124,0.0097,0.0104,0.0086,0.0149,0.0145,0.0156,0.0026,0.0026,0.0026,0.0025,0,0,-0.0625,-0.0625,-0.0613,-0.058,-0.0542,-0.0502,-0.0431,-0.0344,-0.0274,-0.0216,-0.0108,0.0015,0.0031,0.0097,0.0142,0.0194,0.0247,0.0175,0.0178,0.0155,0.0333,0.0301,0.0309,0.0265,0.0268,0.027,0.029,0,-0.0573,-0.0524,-0.0532,-0.0445,-0.0404,-0.0381,-0.0305,-0.0229,-0.0171,-0.0073,-0.0,0.0107,0.0088,0.0142,0.0191,0.025,0.0282,0.0239,0.0295,0.0297,0.0244,0.0324,0.0292,0.0307,0.03,0.0302,0.0303,0,-0.0501,-0.0485,-0.0413,-0.0346,-0.0325,-0.0274,-0.0154,-0.0087,0.0026,0.0069,0.0157,0.02,0.0306,0.0261,0.0364,0.0333,0.0332,0.0348,0.035,0.0333,0.0288,0.0254,0.0327,0.0305,0.0319,0.0318,0.0317,0,-0.0416,-0.0372,-0.0314,-0.0291,-0.0231,-0.0179,-0.0136,-0.0033,0.0041,0.0156,0.021,0.0318,0.0381,0.0413,0.0427,0.0403,0.0507,0.0481,0.0445,0.0439,0.0433,0.0424,0.048,0.054,0.054,0.054,0.0539,0,-0.0319,-0.0253,-0.0277,-0.0233,-0.0142,-0.0123,-0.0006,0.0051,0.0142,0.0241,0.0279,0.0365,0.0421,0.0478,0.0467,0.0491,0.0537,0.047,0.0465,0.043,0.0421,0.0418,0.041,0.054,0.054,0.054,0.054,0,-0.0178,-0.0204,-0.0131,-0.0108,-0.0095,-0.002,0.0048,0.013,0.0186,0.031,0.0344,0.0429,0.0492,0.052,0.0583,0.055,0.0567,0.0558,0.0483,0.0469,0.0405,0.0399,0.0477,0.0511,0.0528,0.0528,0.0528,0,-0.0082,-0.0047,-0.0042,-0.0018,-0.0001,0.0072,0.0126,0.0171,0.024,0.0348,0.0415,0.0495,0.0565,0.0619,0.0591,0.0576,0.0572,0.0518,0.0482,0.0421,0.0411,0.0413,0.0437,0.0455,0.0454,0.0453,0.0453,0,0.0091,0.0066,0.0093,0.0107,0.0146,0.0201,0.0261,0.0311,0.0369,0.0445,0.0536,0.0588,0.0619,0.0612,0.0577,0.0549,0.0516,0.0502,0.0489,0.0412,0.0373,0.0396,0.0378,0.0447,0.0447,0.0448,0.0448,0.0448,0.0218,0.024,0.0212,0.0241,0.0271,0.0306,0.0341,0.0396,0.0476,0.0556,0.0607,0.0669,0.0634,0.0585,0.0543,0.0433,0.0477,0.0393,0.04,0.0415,0.0435,0.0378,0.0413,0.0414,0.0414,0.0414,0.0415,0,0.0342,0.0313,0.0343,0.0337,0.0361,0.0355,0.0411,0.0424,0.0486,0.0591,0.065,0.0671,0.0614,0.0542,0.0395,0.0337,0.0345,0.0321,0.0323,0.0364,0.035,0.0332,0.0293,0.0293,0.0293,0.0293,0.0293,0.0293,0.0395,0.0398,0.0367,0.039,0.0394,0.0397,0.0409,0.0435,0.0491,0.0559,0.0607,0.0654,0.0637,0.0424,0.0294,0.0268,0.03,0.0266,0.0329,0.0289,0.0296,0.0303,0.0285,0.0236,0.0236,0.0342,0.0342,0.0343]}],[{"header":{"parameterUnit":"m.s-1","parameterCategory":2,"la1":30.2991,"la2":30.254,"lo1":-89.0895,"lo2":-89.0444,"dy":0.0017,"dx":0.0017,"nx":28,"ny":28,"refTime":"2024-08-14T03:00:00:Z","depth":"2","parameterNumber":2,"parameterNumberName":"U-component_of_CURRENTS"},"data":[0,0,0,0,0,0,0,0,0,0,0,0,0,0,0,0,0,0,0,0,0,0,0,0,0,0,0,0,0,0,0,0,0,0,0,0,0,0,0,0,0,0,0,0,0,0,0,0,0,0,0,0,0,0,0,0,0,0,0.1928,0.1929,0,0.2022,0.2023,0.2024,0.206,0.2059,0.2059,0.2058,0.217,0.2173,0.2176,0,0,0,0,0,0,0,0,0,0,0,0,0,0.2119,0.2113,0.1928,0.1929,0.193,0.2021,0.2023,0.2024,0.206,0.2059,0.2059,0.2058,0.2169,0.2173,0.2177,0,0,0,0,0,0,0,0,0,0,0,0,0,0.2107,0.2111,0.1927,0.1957,0.1961,0.2021,0.2023,0.2025,0.206,0.2059,0.2059,0.2058,0.2167,0.2172,0.2177,0.2221,0,0,0.2193,0.2195,0,0,0,0,0,0,0,0,0.2107,0.21,0.1952,0.1955,0.1959,0.2027,0.2131,0.2091,0.206,0.2024,0.2058,0.2058,0.2123,0.2132,0.2153,0.2226,0.2231,0.2193,0.2196,0.2198,0.22,0,0,0,0,0,0,0,0.2108,0.2098,0.1966,0.1953,0.1958,0.2083,0.2077,0.2126,0.2077,0.2027,0.2029,0.2038,0.2125,0.2148,0.2156,0.2232,0.2193,0.2197,0.22,0.2202,0.2429,0.2432,0,0,0,0,0,0,0.2075,0.2096,0.1963,0.1969,0.2032,0.2078,0.2073,0.2007,0.2076,0.2086,0.2038,0.2039,0.2139,0.215,0.216,0.2262,0.2198,0.2203,0.2206,0.2426,0.243,0.2433,0,0,0,0,0,0,0.2077,0.2059,0.196,0.204,0.2035,0.2073,0.2001,0.2009,0.2053,0.2085,0.2094,0.2076,0.2139,0.2153,0.2227,0.2264,0.2205,0.221,0.2423,0.2427,0.2431,0.2437,0,0,0,0,0,0,0.2081,0.2057,0.2024,0.2034,0.2029,0.2009,0.2002,0.2012,0.2057,0.206,0.212,0.2128,0.214,0.222,0.2232,0.227,0.2214,0.2419,0.2425,0.243,0.2433,0.2441,0.2448,0,0,0,0,0,0.2086,0.2033,0.2019,0.2006,0.1969,0.201,0.2021,0.2051,0.206,0.2087,0.213,0.2127,0.2265,0.2226,0.224,0.228,0.2416,0.2423,0.2429,0.2429,0.2439,0.2447,0,0,0,0,0,0,0.2139,0.2032,0.2017,0.1943,0.1982,0.2016,0.2046,0.2069,0.2126,0.2136,0.2162,0.2175,0.226,0.2279,0.2236,0.2368,0.2343,0.2353,0.2338,0.2348,0.2355,0.2342,0.2218,0,0,0,0,0,0.2121,0.202,0.2012,0.1966,0.1982,0.2023,0.2051,0.2073,0.2116,0.2141,0.2181,0.2236,0.2298,0.2327,0.2384,0.245,0.2471,0.2491,0.2499,0.2504,0.2508,0.261,0.2626,0.2455,0.2455,0.2455,0,0,0.2129,0.2063,0.2011,0.1969,0.2,0.2035,0.2039,0.2086,0.2123,0.2146,0.2218,0.227,0.2327,0.2402,0.2441,0.242,0.2556,0.2513,0.2517,0.2518,0.2619,0.2635,0.2649,0.246,0.2459,0.2458,0,0,0.2145,0.2046,0.2006,0.202,0.205,0.2066,0.2084,0.2133,0.2162,0.2235,0.2268,0.2339,0.2425,0.2469,0.2502,0.2591,0.2601,0.2622,0.2637,0.2736,0.2749,0.2762,0.2759,0.2772,0.2615,0.2615,0.2615,0,0.2172,0.2107,0.203,0.2041,0.2058,0.208,0.2122,0.2155,0.2227,0.2262,0.226,0.2421,0.2454,0.2557,0.2578,0.2605,0.2637,0.2586,0.2742,0.2755,0.2768,0.2763,0.2777,0.2616,0.2616,0.2615,0.2615,0,0.2192,0.2159,0.216,0.2128,0.2139,0.2182,0.2198,0.224,0.2271,0.2311,0.2424,0.2482,0.2592,0.26,0.2608,0.2728,0.271,0.2743,0.2706,0.2785,0.2775,0.2789,0.2617,0.2617,0.2617,0.2616,0,0,0.2207,0.217,0.2179,0.2197,0.2187,0.2213,0.2243,0.2301,0.2369,0.2419,0.2518,0.2595,0.2657,0.2701,0.2742,0.2782,0.2867,0.2796,0.28,0.2767,0.3029,0.2738,0.2725,0.2943,0.2947,0.295,0.2964,0,0.2277,0.2296,0.225,0.231,0.2334,0.2319,0.2357,0.2396,0.2444,0.2544,0.2592,0.2714,0.2692,0.2774,0.2822,0.2878,0.2915,0.2856,0.298,0.2981,0.2695,0.2737,0.258,0.2558,0.2978,0.298,0.2982,0,0.234,0.2331,0.2382,0.2396,0.2412,0.2463,0.2519,0.2561,0.265,0.2684,0.2783,0.2852,0.2939,0.2925,0.3029,0.3003,0.303,0.3027,0.3031,0.277,0.2719,0.2562,0.2568,0.3005,0.3003,0.3002,0.3,0,0.2426,0.2436,0.2471,0.2474,0.2491,0.2544,0.2585,0.2644,0.2662,0.2817,0.2843,0.2992,0.3032,0.3139,0.3126,0.3125,0.3194,0.3212,0.2959,0.2936,0.2827,0.2785,0.3307,0.3307,0.3307,0.3307,0.3307,0,0.2515,0.2563,0.2534,0.2583,0.2629,0.2638,0.2722,0.2778,0.2845,0.285,0.2969,0.2974,0.3089,0.3126,0.3178,0.3065,0.326,0.2947,0.2932,0.2813,0.2772,0.3196,0.3183,0.3308,0.3308,0.3307,0.3307,0,0.2623,0.2615,0.2647,0.2674,0.2682,0.273,0.2745,0.2772,0.2865,0.2878,0.2922,0.2958,0.2947,0.3014,0.3103,0.3033,0.3044,0.2972,0.2745,0.2698,0.2703,0.2692,0.2692,0.2682,0.2674,0.2667,0.2661,0,0.2658,0.2696,0.2689,0.2658,0.269,0.2722,0.2702,0.2777,0.2759,0.2814,0.279,0.2805,0.2714,0.2685,0.2651,0.2651,0.2802,0.2437,0.2383,0.266,0.2648,0.2649,0.2648,0.2252,0.2243,0.2236,0.223,0,0.2694,0.2709,0.2698,0.2648,0.2632,0.2576,0.259,0.2572,0.2605,0.2574,0.2507,0.2476,0.2393,0.223,0.2176,0.218,0.2425,0.2271,0.2731,0.2371,0.223,0.2222,0.224,0.2166,0.2173,0.2178,0.2181,0.2184,0.2628,0.262,0.2586,0.2505,0.248,0.241,0.2332,0.2297,0.2216,0.2111,0.218,0.2018,0.2022,0.1763,0.175,0.1748,0.1886,0.1847,0.1879,0.1916,0.1802,0.1648,0.1451,0.1453,0.1455,0.1456,0.1458,0,0.2452,0.2439,0.2405,0.2284,0.2181,0.2259,0.2163,0.2025,0.1827,0.1793,0.1668,0.1461,0.1334,0.1401,0.1287,0.1244,0.1369,0.1204,0.1398,0.1458,0.1512,0.1389,0.0922,0.0921,0.0919,0.0918,0,0,0.2324,0.2204,0.2187,0.1943,0.1901,0.1734,0.165,0.1507,0.1431,0.1222,0.111,0.1148,0.1261,0.1033,0.1032,0.0957,0.1208,0.0922,0.1348,0.1631,0.1684,0.1867,0.1736,0,0,0,0,0]},{"header":{"parameterUnit":"m.s-1","parameterCategory":2,"la1":30.2991,"la2":30.254,"lo1":-89.0895,"lo2":-89.0444,"dy":0.0017,"dx":0.0017,"nx":28,"ny":28,"refTime":"2024-08-14T03:00:00:Z","depth":"2","parameterNumber":3,"parameterNumberName":"V-component_of_CURRENTS"},"data":[0,0,0,0,0,0,0,0,0,0,0,0,0,0,0,0,0,0,0,0,0,0,0,0,0,0,0,0,0,0,0,0,0,0,0,0,0,0,0,0,0,0,0,0,0,0,0,0,0,0,0,0,0,0,0,0,0,0,0.0133,0.0134,0,0.0247,0.0249,0.025,0.0258,0.0256,0.0255,0.0253,0.0248,0.0249,0.025,0,0,0,0,0,0,0,0,0,0,0,0,0,-0.0079,-0.0075,0.0133,0.0134,0.0135,0.0247,0.0249,0.0251,0.0258,0.0256,0.0254,0.0253,0.0247,0.0249,0.025,0,0,0,0,0,0,0,0,0,0,0,0,0,0.0024,-0.0074,0.0132,0.0151,0.0153,0.0247,0.0249,0.0251,0.0258,0.0256,0.0254,0.0252,0.0247,0.0249,0.025,0.0307,0,0,0.0256,0.0257,0,0,0,0,0,0,0,0,0.0018,0.0032,0.0147,0.0149,0.0153,0.0234,0.0172,0.0263,0.0259,0.0221,0.0253,0.0251,0.0232,0.0235,0.0267,0.0307,0.0307,0.0256,0.0258,0.0258,0.0259,0,0,0,0,0,0,0,0.0011,0.0027,0.018,0.0148,0.0152,0.0153,0.0166,0.019,0.0237,0.0224,0.0224,0.0234,0.0233,0.0265,0.0266,0.0307,0.0256,0.0258,0.0259,0.026,0.0324,0.0325,0,0,0,0,0,0,-0.0004,0.0021,0.0177,0.0184,0.0076,0.0159,0.0173,0.0212,0.024,0.0242,0.0236,0.0234,0.0263,0.0264,0.0266,0.0283,0.0258,0.026,0.0261,0.0324,0.0325,0.0325,0,0,0,0,0,0,-0.0008,0.001,0.0172,0.0101,0.0121,0.0165,0.0209,0.0215,0.0217,0.025,0.025,0.0226,0.0261,0.0263,0.0283,0.0284,0.0261,0.0263,0.0323,0.0324,0.0325,0.0349,0,0,0,0,0,0,-0.0014,0.0009,0.0025,0.0101,0.0124,0.0222,0.0211,0.0219,0.0227,0.0225,0.0242,0.0241,0.026,0.028,0.0285,0.0286,0.0264,0.0322,0.0324,0.0325,0.0347,0.035,0.0353,0,0,0,0,0,-0.0022,0.0023,0.0026,0.0044,0.0149,0.0223,0.0236,0.0258,0.0228,0.0246,0.0255,0.0239,0.0289,0.0283,0.0288,0.029,0.0322,0.0323,0.0324,0.0346,0.035,0.0353,0,0,0,0,0,0,-0.0062,0.0031,0.0034,0.0103,0.0149,0.0222,0.0238,0.0244,0.0269,0.0246,0.0261,0.0264,0.0281,0.0284,0.0276,0.031,0.0297,0.03,0.0312,0.0315,0.0318,0.0307,0.0266,0,0,0,0,0,-0.0063,-0.0004,0.0065,0.0115,0.0131,0.0172,0.0197,0.0211,0.0246,0.0252,0.0264,0.0272,0.03,0.0302,0.0328,0.0352,0.035,0.0351,0.0353,0.0356,0.035,0.0371,0.0376,0.0329,0.0329,0.0329,0,0,-0.0065,-0.001,0.0023,0.0108,0.0138,0.0183,0.0182,0.0215,0.0244,0.0247,0.0272,0.0284,0.0309,0.0344,0.0348,0.0339,0.0367,0.0358,0.036,0.0352,0.0373,0.0378,0.0382,0.033,0.033,0.033,0,0,-0.0048,0.0002,0.0043,0.0089,0.0134,0.0173,0.0171,0.0225,0.0234,0.0272,0.0278,0.0292,0.0326,0.0357,0.0374,0.0405,0.0385,0.0395,0.0399,0.042,0.0424,0.0428,0.0425,0.0428,0.0392,0.0393,0.0393,0,-0.0061,0.0001,0.0061,0.0104,0.0136,0.016,0.0192,0.023,0.028,0.0286,0.0272,0.0325,0.034,0.0391,0.0401,0.0411,0.0407,0.0386,0.0424,0.0428,0.0431,0.0427,0.043,0.0394,0.0394,0.0394,0.0393,0,-0.0023,0.0022,0.0045,0.0115,0.0165,0.0195,0.0254,0.0272,0.027,0.0299,0.0326,0.0362,0.0378,0.0396,0.0409,0.0439,0.0423,0.043,0.0415,0.0437,0.0431,0.0434,0.0396,0.0395,0.0395,0.0395,0,0,-0.0036,0.0053,0.0055,0.0073,0.0165,0.0203,0.0256,0.0307,0.0307,0.0348,0.0368,0.0417,0.0397,0.0414,0.0429,0.0458,0.0478,0.0444,0.0445,0.0439,0.0502,0.0442,0.0439,0.0488,0.0488,0.0489,0.0487,0,-0.0042,0.0022,0.0077,0.0127,0.0164,0.0215,0.0263,0.0314,0.0338,0.0368,0.0403,0.0432,0.0417,0.0418,0.0438,0.0491,0.0486,0.0476,0.0482,0.0482,0.0426,0.0442,0.0409,0.04,0.0489,0.049,0.049,0,-0.0031,0.0013,0.0061,0.0121,0.0134,0.0164,0.0216,0.0263,0.0329,0.0348,0.0375,0.0401,0.046,0.0438,0.0493,0.0483,0.0467,0.0499,0.05,0.0436,0.0428,0.0394,0.0401,0.0494,0.0494,0.0494,0.0493,0,-0.0071,-0.0006,0.0022,0.0053,0.0137,0.0139,0.0166,0.0235,0.0292,0.0334,0.0382,0.0413,0.047,0.0468,0.0504,0.0494,0.0567,0.0561,0.0483,0.0478,0.0446,0.0437,0.0554,0.0554,0.0554,0.0554,0.0554,0,-0.0079,-0.0055,-0.0014,0.0007,0.0049,0.0088,0.0133,0.0165,0.0234,0.0321,0.0347,0.0423,0.0484,0.0536,0.0515,0.0512,0.0556,0.0478,0.0476,0.0452,0.0443,0.0523,0.0519,0.0553,0.0553,0.0554,0.0554,0,-0.0073,-0.0062,-0.0006,0.003,0.0047,0.008,0.0171,0.0204,0.0241,0.0362,0.0391,0.0478,0.0528,0.0558,0.0597,0.0547,0.054,0.0506,0.046,0.0451,0.0426,0.0424,0.0421,0.0419,0.0417,0.0415,0.0414,0,-0.0038,-0.0021,0.0037,0.0077,0.0096,0.0149,0.0205,0.0238,0.0297,0.0402,0.0468,0.0535,0.059,0.0603,0.0542,0.0478,0.0502,0.0393,0.0358,0.0415,0.0414,0.0415,0.0415,0.0329,0.0327,0.0326,0.0325,0,0.005,0.0047,0.0084,0.0154,0.0197,0.028,0.0327,0.0379,0.0431,0.0507,0.0577,0.0606,0.0603,0.0547,0.0453,0.0398,0.0403,0.0356,0.0459,0.0356,0.0326,0.0326,0.033,0.0311,0.0313,0.0314,0.0314,0.0315,0.0141,0.0172,0.0184,0.0252,0.0307,0.0355,0.0388,0.0439,0.0511,0.057,0.0621,0.0638,0.0601,0.0449,0.0369,0.0269,0.028,0.0245,0.0252,0.026,0.0238,0.0205,0.0163,0.0163,0.0164,0.0164,0.0164,0,0.0253,0.0242,0.0292,0.0333,0.0367,0.0379,0.0445,0.045,0.0496,0.0576,0.0608,0.0538,0.0475,0.0414,0.0233,0.0142,0.0152,0.0125,0.0166,0.0178,0.0189,0.0167,0.0071,0.0071,0.0071,0.0071,0,0,0.0309,0.0331,0.0313,0.0359,0.0378,0.0385,0.0395,0.0407,0.0444,0.0474,0.0494,0.0552,0.0487,0.036,0.0251,0.0152,0.0182,0.0128,0.0203,0.0272,0.0285,0.0249,0.0225,0,0,0,0,0]}],[{"header":{"parameterUnit":"m.s-1","parameterCategory":2,"la1":30.2991,"la2":30.254,"lo1":-89.0895,"lo2":-89.0444,"dy":0.0017,"dx":0.0017,"nx":28,"ny":28,"refTime":"2024-08-14T03:00:00:Z","depth":"4","parameterNumber":2,"parameterNumberName":"U-component_of_CURRENTS"},"data":[0,0,0,0,0,0,0,0,0,0,0,0,0,0,0,0,0,0,0,0,0,0,0,0,0,0,0,0,0,0,0,0,0,0,0,0,0,0,0,0,0,0,0,0,0,0,0,0,0,0,0,0,0,0,0,0,0,0,-0.033,-0.033,0,-0.035,-0.035,-0.035,-0.0329,-0.0328,-0.0328,-0.0327,-0.0295,-0.0295,-0.0294,0,0,0,0,0,0,0,0,0,0,0,0,0,-0.0312,-0.0312,-0.033,-0.033,-0.033,-0.035,-0.035,-0.035,-0.0329,-0.0328,-0.0328,-0.0327,-0.0295,-0.0295,-0.0294,0,0,0,0,0,0,0,0,0,0,0,0,0,-0.0323,-0.0312,-0.033,-0.0323,-0.0323,-0.035,-0.035,-0.0351,-0.033,-0.0328,-0.0327,-0.0326,-0.0295,-0.0295,-0.0294,-0.0315,0,0,-0.0294,-0.0293,0,0,0,0,0,0,0,0,-0.0323,-0.0324,-0.0324,-0.0323,-0.0323,-0.0337,-0.0332,-0.0336,-0.033,-0.0326,-0.0327,-0.0326,-0.0305,-0.0304,-0.031,-0.0313,-0.0312,-0.0293,-0.0293,-0.0293,-0.0293,0,0,0,0,0,0,0,-0.0322,-0.0323,-0.0337,-0.0324,-0.0324,-0.0332,-0.0332,-0.0333,-0.032,-0.0326,-0.0325,-0.0329,-0.0305,-0.031,-0.0309,-0.0311,-0.0293,-0.0293,-0.0293,-0.0293,-0.019,-0.0188,0,0,0,0,0,0,-0.0321,-0.0322,-0.0336,-0.0337,-0.0321,-0.0334,-0.0334,-0.0333,-0.0321,-0.0319,-0.033,-0.0328,-0.0311,-0.0309,-0.0307,-0.0169,-0.0293,-0.0293,-0.0293,-0.0193,-0.019,-0.0187,0,0,0,0,0,0,-0.032,-0.0321,-0.0335,-0.0331,-0.0334,-0.0335,-0.0334,-0.0334,-0.0302,-0.0325,-0.0321,-0.0294,-0.031,-0.0308,-0.0255,-0.0174,-0.0293,-0.0293,-0.0196,-0.0192,-0.0188,0.0005,0,0,0,0,0,0,-0.0319,-0.0321,-0.0319,-0.0331,-0.0334,-0.0327,-0.0336,-0.0335,-0.0309,-0.0306,-0.0294,-0.0292,-0.0309,-0.0255,-0.0255,-0.0175,-0.0292,-0.0199,-0.0194,-0.0189,-0.0005,0.0015,0.0031,0,0,0,0,0,-0.0319,-0.0319,-0.0319,-0.0321,-0.0331,-0.0326,-0.0327,-0.0325,-0.0308,-0.0291,-0.0263,-0.029,-0.0225,-0.0253,-0.0253,-0.0171,-0.0201,-0.0195,-0.019,-0.0013,0.0011,0.0031,0,0,0,0,0,0,-0.0314,-0.0318,-0.0317,-0.032,-0.0312,-0.0322,-0.0317,-0.0302,-0.027,-0.0247,-0.026,-0.0256,-0.018,-0.0211,-0.0242,-0.0131,-0.0217,-0.0211,-0.0082,-0.006,-0.0043,-0.007,-0.0292,0,0,0,0,0,-0.0313,-0.0311,-0.0311,-0.0312,-0.0305,-0.03,-0.0296,-0.0277,-0.0256,-0.024,-0.0205,-0.0183,-0.0165,-0.0139,-0.0132,-0.0072,-0.0185,-0.0022,-0.0004,0.0012,-0.0012,-0.0133,-0.013,-0.0168,-0.0168,-0.0168,0,0,-0.0316,-0.0316,-0.0317,-0.0311,-0.0307,-0.0274,-0.0293,-0.0262,-0.0204,-0.0242,-0.0129,-0.0117,-0.0139,-0.0062,-0.003,-0.0068,-0.0027,0.0019,0.0034,-0.0001,-0.0127,-0.0124,-0.0122,-0.0164,-0.0164,-0.0165,0,0,-0.0313,-0.0312,-0.0303,-0.0284,-0.0259,-0.0243,-0.0219,-0.0173,-0.0125,-0.0026,-0.0039,0.0006,0.008,0.0064,0.0062,0.0172,0.0067,0.0213,0.0295,0.0181,0.0181,0.0181,0.0076,0.0064,0.023,0.023,0.0231,0,-0.0311,-0.0298,-0.0299,-0.027,-0.0243,-0.0215,-0.017,-0.0122,-0.0044,-0.0007,0.0042,0.0114,0.0124,0.014,0.0218,0.0212,0.0135,0.0223,0.0201,0.0198,0.0193,0.0085,0.007,0.024,0.0239,0.0238,0.0237,0,-0.0291,-0.0269,-0.0258,-0.0205,-0.0172,-0.0129,-0.0061,0.002,0.0111,0.0149,0.0238,0.0258,0.0283,0.0326,0.0331,0.0328,0.028,0.0232,0.0142,0.0208,0.0092,0.0072,0.0255,0.0251,0.0248,0.0246,0,0,-0.0297,-0.0255,-0.0242,-0.021,-0.0124,-0.0094,0.0021,0.0098,0.0142,0.0275,0.0316,0.0418,0.0425,0.0419,0.0419,0.0366,0.0322,0.0331,0.0321,0.022,0.0083,0.029,0.0286,0.0283,0.028,0.0278,0.0025,0,-0.0271,-0.0224,-0.0191,-0.0107,-0.007,0.0006,0.0091,0.0175,0.0253,0.031,0.0347,0.0392,0.0458,0.0487,0.0453,0.0343,0.0275,0.0395,0.0037,0.0025,0.0194,0.0271,0.0268,0.0009,0.0004,0.0001,-0.0002,0,-0.0239,-0.0215,-0.0144,-0.0068,-0.0043,0.0037,0.0148,0.0225,0.0291,0.0342,0.0391,0.0407,0.0413,0.043,0.0274,0.036,0.0246,0.015,0.0136,0.0236,0.0196,-0.0083,-0.004,-0.0037,-0.0034,-0.0032,-0.0029,0,-0.024,-0.0168,-0.0112,-0.0079,0.0012,0.0093,0.017,0.0254,0.031,0.0353,0.0379,0.0364,0.0373,0.0243,0.0197,0.0206,-0.0023,-0.0078,-0.0029,-0.0019,-0.0227,-0.0224,-0.0261,-0.0261,-0.026,-0.026,-0.0259,0,-0.0211,-0.017,-0.0097,-0.0064,0.0044,0.0106,0.0231,0.0276,0.0323,0.0385,0.04,0.0442,0.0333,0.0255,0.0145,0.0067,-0.007,-0.0009,-0.0059,-0.0131,-0.0115,-0.024,-0.0235,-0.0269,-0.0267,-0.0265,-0.0264,0,-0.0203,-0.0173,-0.0113,-0.0015,0.0053,0.0136,0.0311,0.0398,0.0392,0.046,0.0485,0.047,0.0429,0.0306,0.0077,0.0034,-0.0115,-0.014,-0.0177,-0.0228,-0.0052,-0.0033,-0.0161,-0.0155,-0.0151,-0.0147,-0.0143,0,-0.02,-0.0165,-0.006,0.0022,0.0097,0.0254,0.0413,0.0471,0.0517,0.0527,0.0539,0.0529,0.0546,0.0336,0.023,0.0004,-0.0007,-0.0135,-0.0093,0.0,-0.0038,-0.0026,-0.0014,-0.0136,-0.0135,-0.0134,-0.0132,0,-0.0186,-0.0152,-0.0116,0.005,0.0226,0.0402,0.0562,0.0571,0.0636,0.0645,0.0615,0.0591,0.0547,0.043,0.0293,0.0132,-0.0069,-0.0088,-0.0101,-0.0063,0.0028,-0.0012,-0.0005,-0.0116,-0.0119,-0.012,-0.0121,0,-0.0167,-0.0149,-0.0083,0.0103,0.0271,0.045,0.0554,0.0643,0.0678,0.0625,0.0665,0.0627,0.0608,0.05,0.0382,0.0279,0.0227,0.012,0.0095,0.0076,0.0288,0.0447,0.0396,0,0,0,0,0,-0.0119,-0.0073,0.0014,0.0145,0.0298,0.0424,0.0609,0.0681,0.0733,0.0727,0.0652,0.0645,0.0569,0.0535,0.0458,0.0457,0.02,0.0366,0.0059,-0.0027,-0.0046,0.0192,0,0,0,0,0,0,-0.0092,-0.0051,-0.0008,0.0161,0.0262,0.0445,0.0569,0.0627,0.0565,0.06,0.055,0.0596,0.0502,0.058,0.0434,0.042,0.0213,0.0344,0.0343,-0.0017,-0.0034,-0.0048,0.0189,0,0,0,0,0]},{"header":{"parameterUnit":"m.s-1","parameterCategory":2,"la1":30.2991,"la2":30.254,"lo1":-89.0895,"lo2":-89.0444,"dy":0.0017,"dx":0.0017,"nx":28,"ny":28,"refTime":"2024-08-14T03:00:00:Z","depth":"4","parameterNumber":3,"parameterNumberName":"V-component_of_CURRENTS"},"data":[0,0,0,0,0,0,0,0,0,0,0,0,0,0,0,0,0,0,0,0,0,0,0,0,0,0,0,0,0,0,0,0,0,0,0,0,0,0,0,0,0,0,0,0,0,0,0,0,0,0,0,0,0,0,0,0,0,0,0.0394,0.0395,0,0.042,0.042,0.042,0.0508,0.051,0.0512,0.0514,0.0524,0.0522,0.052,0,0,0,0,0,0,0,0,0,0,0,0,0,0.0362,0.0362,0.0394,0.0395,0.0395,0.042,0.042,0.042,0.0507,0.051,0.0513,0.0515,0.0524,0.0522,0.052,0,0,0,0,0,0,0,0,0,0,0,0,0,0.0378,0.0362,0.0394,0.0444,0.0449,0.042,0.042,0.042,0.0507,0.051,0.0514,0.0517,0.0525,0.0522,0.052,0.0435,0,0,0.0511,0.051,0,0,0,0,0,0,0,0,0.0377,0.0379,0.0436,0.0441,0.0446,0.0467,0.0412,0.0425,0.0506,0.0482,0.0514,0.0518,0.0502,0.0502,0.0495,0.0435,0.0436,0.0511,0.0509,0.0508,0.0507,0,0,0,0,0,0,0,0.0376,0.0378,0.0401,0.0437,0.0443,0.0445,0.0451,0.0415,0.047,0.0484,0.0491,0.0498,0.0505,0.0498,0.0496,0.0436,0.0511,0.0508,0.0507,0.0506,0.036,0.0358,0,0,0,0,0,0,0.0378,0.0377,0.0401,0.0403,0.0422,0.0443,0.045,0.0454,0.0471,0.0478,0.0495,0.0502,0.0501,0.0499,0.0497,0.0499,0.0508,0.0505,0.0504,0.0362,0.0359,0.0357,0,0,0,0,0,0,0.0377,0.0379,0.04,0.0393,0.0396,0.0441,0.0444,0.0453,0.05,0.048,0.0487,0.054,0.0503,0.0501,0.0496,0.0497,0.0504,0.0502,0.0365,0.0361,0.0358,0.0438,0,0,0,0,0,0,0.0376,0.0379,0.0392,0.0393,0.0397,0.0409,0.0442,0.0451,0.0497,0.0508,0.0519,0.0521,0.0506,0.05,0.0493,0.0493,0.0499,0.0367,0.0363,0.0359,0.0439,0.0438,0.0438,0,0,0,0,0,0.0374,0.0381,0.0392,0.0396,0.041,0.041,0.0412,0.0452,0.0496,0.0509,0.0519,0.0524,0.0468,0.0497,0.0489,0.0488,0.0369,0.0364,0.0359,0.0439,0.0438,0.0438,0,0,0,0,0,0,0.038,0.039,0.0403,0.0415,0.0424,0.0427,0.0458,0.0473,0.049,0.0522,0.0508,0.0508,0.0495,0.0465,0.0497,0.0423,0.0412,0.0406,0.0475,0.0474,0.0474,0.0497,0.0497,0,0,0,0,0,0.0381,0.0395,0.0397,0.0413,0.043,0.0449,0.0463,0.0484,0.0494,0.051,0.0517,0.0499,0.0452,0.0452,0.0411,0.0383,0.0349,0.0365,0.0365,0.0366,0.0372,0.0279,0.0272,0.034,0.0341,0.0341,0,0,0.0392,0.0399,0.041,0.0416,0.0442,0.0447,0.0469,0.0506,0.0515,0.0501,0.0539,0.0505,0.044,0.041,0.0399,0.0402,0.0336,0.0359,0.0361,0.0367,0.0273,0.0267,0.0261,0.0337,0.0338,0.0338,0,0,0.0409,0.0432,0.0449,0.0452,0.0484,0.0482,0.0502,0.0526,0.0556,0.0566,0.0538,0.0503,0.0483,0.0413,0.0376,0.0337,0.0332,0.0332,0.0366,0.0276,0.0271,0.0266,0.0267,0.0261,0.034,0.034,0.034,0,0.0417,0.0437,0.0453,0.0464,0.0483,0.0504,0.0525,0.0529,0.0546,0.0552,0.0599,0.0507,0.0471,0.0371,0.0375,0.034,0.0329,0.0388,0.0281,0.0275,0.0268,0.0269,0.0262,0.0343,0.0343,0.0343,0.0342,0,0.0435,0.0458,0.0479,0.0495,0.051,0.0535,0.0543,0.057,0.062,0.0606,0.0576,0.0518,0.0469,0.0432,0.0414,0.0325,0.035,0.0293,0.03,0.0267,0.027,0.0261,0.0348,0.0347,0.0346,0.0345,0,0,0.0441,0.0478,0.0499,0.0522,0.0536,0.0557,0.0574,0.0576,0.0587,0.0597,0.0589,0.051,0.0502,0.0454,0.0395,0.0323,0.0292,0.0322,0.0316,0.0358,0.0178,0.0166,0.0155,0.0235,0.0232,0.023,0.022,0,0.046,0.0499,0.051,0.0556,0.058,0.0597,0.0612,0.0614,0.0616,0.0604,0.0537,0.0512,0.0499,0.0499,0.0418,0.029,0.0264,0.0305,0.0173,0.017,0.0188,0.014,0.0222,0.0213,0.0211,0.021,0.0209,0,0.0486,0.0505,0.0572,0.0606,0.0628,0.0671,0.0711,0.0717,0.0668,0.0662,0.0607,0.0565,0.0464,0.047,0.029,0.0331,0.0295,0.0212,0.0208,0.0158,0.0137,0.0231,0.0192,0.0193,0.0194,0.0195,0.0196,0,0.0509,0.0557,0.063,0.0642,0.0675,0.0749,0.0791,0.0772,0.0757,0.072,0.0684,0.0569,0.0513,0.0415,0.0298,0.031,0.0104,0.0081,0.0046,0.0049,0.0036,0.004,-0.0005,-0.0005,-0.0005,-0.0005,-0.0005,0,0.0511,0.0566,0.0682,0.0707,0.0796,0.0842,0.0904,0.0895,0.0862,0.0795,0.0752,0.0653,0.0497,0.0367,0.0295,0.0139,0.0111,0.0053,0.002,0.0076,0.0084,0.0034,0.0038,-0.0005,-0.0005,-0.0005,-0.0005,0,0.0519,0.0586,0.0664,0.077,0.0809,0.0912,0.0972,0.0955,0.0963,0.0868,0.087,0.0696,0.0525,0.038,0.0178,0.0118,-0.0016,-0.0038,0.009,0.0066,0.0014,0.0022,-0.008,-0.0082,-0.0082,-0.0083,-0.0084,0,0.0516,0.0567,0.0713,0.0765,0.084,0.0966,0.0982,0.1009,0.0963,0.0868,0.0788,0.0647,0.0522,0.0233,0.01,-0.0036,-0.0052,-0.0058,-0.0065,0.0015,-0.0006,0.0004,0.0013,-0.0085,-0.0086,-0.0086,-0.0086,0,0.0477,0.0581,0.0637,0.0741,0.0827,0.0858,0.0919,0.0886,0.0872,0.0865,0.0702,0.0588,0.0371,0.0185,0.0085,-0.0014,-0.0043,-0.0068,-0.0066,-0.0073,0.0008,-0.001,0.0001,-0.0089,-0.0089,-0.0088,-0.0088,0,0.0464,0.0507,0.0596,0.0697,0.0752,0.074,0.079,0.0755,0.0732,0.0672,0.0612,0.045,0.0367,0.0197,0.0091,-0.0007,-0.0026,-0.0018,-0.0019,-0.0017,-0.0008,0.0103,0.0001,0,0,0,0,0,0.042,0.0445,0.0507,0.0594,0.0638,0.0663,0.0689,0.0726,0.0736,0.0611,0.0629,0.0456,0.0273,0.0185,0.0077,0.0058,-0.0052,-0.0066,-0.0046,-0.0107,-0.0103,-0.0109,0,0,0,0,0,0,0.0387,0.0434,0.0468,0.0471,0.05,0.0506,0.0519,0.0533,0.0495,0.052,0.041,0.0447,0.0249,0.0312,0.0069,0.0043,0.005,-0.0127,-0.0128,-0.0109,-0.0105,-0.0103,-0.0107,0,0,0,0,0]}]]